QPF
0.02 0.02 0.03 0.04 0.05 0.06 0.07 0.07 0.06 0.05 0.06 0.04 0.03 0.04 0.04 0.03 0.03 0.04 0.05 0.06 0.07 0.07 0.08 0.07 0.07 0.07 0.09 0.11 0.13 0.14 0.15 0.14 0.15 0.15 0.12 0.09 0.07 0.06 0.05 0.04 0.03 0.02 0.01
0.02 0.02 0.03 0.04 0.04 0.05 0.05 0.05 0.04 0.03 0.04 0.04 0.03 0.03 0.03 0.03 0.03 0.03 0.03 0.04 0.04 0.04 0.06 0.07 0.07 0.06 0.06 0.08 0.09 0.10 0.11 0.11 0.11 0.10 0.07 0.06 0.05 0.05 0.05 0.04 0.03 0.02 0.01
0.02 0.03 0.03 0.04 0.04 0.04 0.04 0.04 0.04 0.03 0.03 0.02 0.02 0.02 0.02 0.02 0.03 0.03 0.03 0.04 0.04 0.04 0.03 0.04 0.05 0.06 0.05 0.06 0.06 0.06 0.07 0.07 0.07 0.06 0.05 0.04 0.04 0.03 0.03 0.03 0.03 0.02 0.02
0.02 0.03 0.04 0.05 0.04 0.04 0.04 0.03 0.03 0.02 0.02 0.02 0.01 0.02 0.02 0.02 0.02 0.02 0.03 0.04 0.04 0.03 0.02 0.02 0.03 0.03 0.04 0.03 0.04 0.04 0.04 0.04 0.04 0.04 0.04 0.03 0.03 0.03 0.02 0.02 0.01 0.01 0.01
0.03 0.03 0.03 0.04 0.04 0.04 0.04 0.03 0.02 0.02 0.02 0.01 0.01 0.02 0.02 0.03 0.03 0.02 0.02 0.02 0.02 0.02 0.02 0.01 0.01 0.02 0.02 0.02 0.01 0.02 0.01 0.02 0.02 0.02 0.02 0.02 0.02 0.02 0.02 0.02 0.02 0.01 0.01
0.03 0.04 0.03 0.03 0.04 0.05 0.05 0.03 0.02 0.02 0.02 0.02 0.01 0.02 0.02 0.03 0.04 0.04 0.02 0.01 0.01 0.01 0.02 0.01 0.01 0.01 0.01 0.01 0.01 0.01 0.00 0.00 0.01 0.01 0.01 0.01 0.01 0.01 0.01 0.01 0.01 0.01 0.01
0.02 0.03 0.03 0.03 0.03 0.04 0.04 0.04 0.02 0.02 0.02 0.02 0.02 0.01 0.02 0.02 0.03 0.03 0.02 0.02 0.01 0.01 0.01 0.01 0.01 0.00 0.00 0.00 0.00 0.00 0.00 0.00 0.00 0.00 0.00 0.00 0.01 0.01 0.01 0.01 0.00 0.01 0.02
0.02 0.02 0.03 0.03 0.03 0.03 0.04 0.04 0.03 0.03 0.03 0.03 0.02 0.02 0.02 0.02 0.02 0.03 0.02 0.01 0.01 0.01 0.01 0.01 0.01 0.01 0.00 0.00 0.00 0.00 0.00 0.00 0.00 0.00 0.00 0.00 0.00 0.00 0.00 0.00 0.00 0.01 0.01
0.02 0.02 0.02 0.02 0.03 0.03 0.03 0.03 0.03 0.03 0.04 0.04 0.03 0.02 0.01 0.01 0.02 0.01 0.01 0.01 0.00 0.00 0.01 0.01 0.01 0.01 0.00 0.00 0.00 0.00 0.00 0.00 0.00 0.00 0.00 0.00 0.00 0.00 0.00 0.01 0.01 0.01 0.01
0.02 0.02 0.03 0.02 0.03 0.03 0.03 0.03 0.02 0.03 0.03 0.03 0.02 0.02 0.01 0.01 0.01 0.01 0.00 0.00 0.00 0.00 0.00 0.00 0.00 0.00 0.00 0.00 0.00 0.00 0.00 0.00 0.00 0.00 0.00 0.01 0.01 0.02 0.02 0.02 0.02 0.02 0.01
0.02 0.03 0.03 0.02 0.02 0.02 0.03 0.03 0.03 0.03 0.03 0.03 0.02 0.02 0.01 0.01 0.01 0.01 0.00 0.01 0.01 0.00 0.00 0.00 0.00 0.00 0.00 0.00 0.00 0.00 0.00 0.00 0.00 0.00 0.00 0.01 0.01 0.02 0.02 0.02 0.02 0.01 0.01
0.02 0.02 0.02 0.02 0.03 0.03 0.03 0.04 0.03 0.03 0.03 0.02 0.02 0.01 0.00 0.01 0.01 0.01 0.00 0.00 0.00 0.00 0.00 0.00 0.00 0.00 0.00 0.00 0.00 0.00 0.00 0.00 0.00 0.00 0.00 0.00 0.01 0.01 0.01 0.01 0.01 0.01 0.01
0.01 0.01 0.01 0.02 0.02 0.02 0.02 0.02 0.03 0.03 0.02 0.02 0.01 0.00 0.00 0.00 0.00 0.00 0.00 0.00 0.00 0.00 0.00 0.00 0.00 0.00 0.00 0.00 0.00 0.00 0.00 0.00 0.00 0.00 0.00 0.00 0.00 0.00 0.00 0.00 0.01 0.01 0.00
0.01 0.01 0.01 0.01 0.01 0.01 0.01 0.02 0.02 0.01 0.01 0.01 0.01 0.00 0.00 0.00 0.00 0.00 0.00 0.00 0.00 0.00 0.00 0.00 0.00 0.00 0.00 0.00 0.00 0.00 0.00 0.00 0.00 0.00 0.00 0.00 0.00 0.00 0.00 0.01 0.01 0.00 0.00
0.01 0.01 0.01 0.01 0.01 0.01 0.01 0.02 0.01 0.01 0.01 0.01 0.00 0.00 0.00 0.00 0.00 0.00 0.00 0.00 0.00 0.00 0.00 0.00 0.00 0.00 0.00 0.00 0.00 0.00 0.00 0.00 0.00 0.00 0.00 0.00 0.00 0.00 0.00 0.00 0.00 0.00 0.00
0.00 0.00 0.00 0.01 0.01 0.01 0.01 0.01 0.01 0.00 0.00 0.00 0.00 0.00 0.00 0.00 0.00 0.00 0.00 0.00 0.00 0.00 0.00 0.00 0.00 0.00 0.00 0.00 0.00 0.00 0.00 0.00 0.00 0.00 0.00 0.00 0.00 0.00 0.00 0.00 0.00 0.00 0.00
0.00 0.00 0.00 0.00 0.00 0.00 0.01 0.00 0.00 0.00 0.00 0.00 0.00 0.00 0.00 0.00 0.00 0.00 0.00 0.00 0.00 0.00 0.00 0.00 0.00 0.00 0.00 0.00 0.00 0.00 0.00 0.00 0.00 0.00 0.00 0.00 0.00 0.00 0.00 0.00 0.00 0.00 0.00
0.00 0.00 0.00 0.00 0.00 0.00 0.00 0.00 0.00 0.00 0.00 0.00 0.00 0.00 0.00 0.00 0.00 0.00 0.00 0.00 0.00 0.00 0.00 0.00 0.00 0.00 0.00 0.00 0.00 0.00 0.00 0.00 0.00 0.00 0.00 0.00 0.00 0.00 0.00 0.00 0.00 0.00 0.00
0.00 0.00 0.00 0.00 0.00 0.00 0.00 0.00 0.00 0.00 0.00 0.00 0.00 0.00 0.00 0.00 0.00 0.00 0.00 0.00 0.00 0.00 0.00 0.00 0.00 0.00 0.00 0.00 0.00 0.00 0.00 0.00 0.00 0.00 0.00 0.00 0.00 0.00 0.00 0.00 0.00 0.00 0.00
0.00 0.00 0.00 0.00 0.00 0.00 0.00 0.00 0.00 0.00 0.00 0.00 0.00 0.00 0.00 0.00 0.00 0.00 0.00 0.00 0.00 0.00 0.00 0.00 0.00 0.00 0.00 0.00 0.00 0.00 0.00 0.00 0.00 0.00 0.00 0.00 0.00 0.00 0.00 0.00 0.00 0.00 0.00
0.00 0.00 0.00 0.00 0.00 0.00 0.00 0.00 0.00 0.00 0.00 0.00 0.00 0.00 0.00 0.00 0.00 0.00 0.00 0.00 0.00 0.00 0.00 0.00 0.00 0.00 0.00 0.00 0.00 0.00 0.00 0.00 0.00 0.00 0.00 0.00 0.00 0.00 0.00 0.00 0.00 0.00 0.00
0.00 0.00 0.00 0.00 0.00 0.00 0.00 0.00 0.00 0.00 0.00 0.00 0.00 0.00 0.00 0.00 0.00 0.00 0.00 0.00 0.00 0.00 0.00 0.00 0.00 0.00 0.00 0.00 0.00 0.00 0.00 0.00 0.00 0.00 0.00 0.00 0.00 0.00 0.00 0.00 0.00 0.00 0.00
0.00 0.00 0.00 0.00 0.00 0.00 0.00 0.00 0.00 0.00 0.00 0.00 0.00 0.00 0.00 0.00 0.00 0.00 0.00 0.00 0.00 0.00 0.00 0.00 0.00 0.00 0.00 0.00 0.00 0.00 0.00 0.00 0.00 0.00 0.00 0.00 0.00 0.00 0.00 0.00 0.00 0.00 0.00
0.00 0.00 0.00 0.00 0.00 0.00 0.00 0.00 0.00 0.00 0.00 0.00 0.00 0.00 0.00 0.00 0.00 0.00 0.00 0.00 0.00 0.00 0.00 0.00 0.00 0.00 0.00 0.00 0.00 0.00 0.00 0.00 0.00 0.00 0.00 0.00 0.00 0.00 0.00 0.00 0.00 0.00 0.00
0.00 0.00 0.00 0.00 0.00 0.00 0.00 0.00 0.00 0.00 0.00 0.00 0.00 0.00 0.00 0.00 0.00 0.00 0.00 0.00 0.00 0.00 0.00 0.00 0.00 0.00 0.00 0.00 0.00 0.00 0.00 0.00 0.00 0.00 0.00 0.00 0.00 0.00 0.00 0.00 0.00 0.00 0.00
0.00 0.00 0.00 0.00 0.00 0.00 0.00 0.00 0.00 0.00 0.00 0.00 0.00 0.00 0.00 0.00 0.00 0.00 0.00 0.00 0.00 0.00 0.00 0.00 0.00 0.00 0.00 0.00 0.00 0.00 0.00 0.00 0.00 0.00 0.00 0.00 0.00 0.00 0.00 0.00 0.00 0.00 0.00
MSLP
1017.78 1017.52 1017.41 1017.44 1017.56 1017.73 1017.92 1018.09 1018.23 1018.35 1018.44 1018.53 1018.63 1018.75 1018.90 1019.08 1019.29 1019.51 1019.73 1019.92 1020.09 1020.22 1020.32 1020.42 1020.53 1020.70 1020.94 1021.30 1021.78 1022.37 1023.06 1023.79 1024.53 1025.22 1025.80 1026.22 1026.48 1026.58 1026.55 1026.42 1026.26 1026.10 1026.00
1018.63 1018.37 1018.24 1018.23 1018.32 1018.46 1018.62 1018.78 1018.91 1019.03 1019.12 1019.21 1019.30 1019.42 1019.56 1019.74 1019.95 1020.18 1020.40 1020.61 1020.79 1020.92 1021.01 1021.08 1021.16 1021.27 1021.45 1021.73 1022.13 1022.65 1023.28 1023.96 1024.67 1025.33 1025.90 1026.32 1026.59 1026.69 1026.65 1026.51 1026.32 1026.13 1025.98
1019.39 1019.16 1019.04 1019.03 1019.10 1019.23 1019.39 1019.56 1019.70 1019.83 1019.92 1020.01 1020.09 1020.19 1020.31 1020.46 1020.65 1020.86 1021.08 1021.29 1021.48 1021.62 1021.73 1021.81 1021.88 1021.98 1022.12 1022.36 1022.71 1023.17 1023.73 1024.35 1025.00 1025.62 1026.15 1026.56 1026.81 1026.90 1026.85 1026.69 1026.47 1026.23 1026.03
1020.05 1019.86 1019.78 1019.80 1019.89 1020.04 1020.23 1020.41 1020.58 1020.72 1020.84 1020.92 1020.99 1021.06 1021.14 1021.25 1021.39 1021.56 1021.76 1021.96 1022.15 1022.32 1022.45 1022.56 1022.66 1022.77 1022.91 1023.13 1023.44 1023.84 1024.34 1024.89 1025.47 1026.02 1026.50 1026.86 1027.08 1027.16 1027.09 1026.92 1026.68 1026.41 1026.15
1020.60 1020.49 1020.47 1020.53 1020.66 1020.86 1021.08 1021.30 1021.52 1021.69 1021.82 1021.91 1021.97 1022.00 1022.04 1022.09 1022.17 1022.29 1022.44 1022.62 1022.81 1022.99 1023.15 1023.30 1023.43 1023.57 1023.73 1023.95 1024.22 1024.58 1025.00 1025.48 1025.97 1026.45 1026.86 1027.16 1027.35 1027.40 1027.33 1027.15 1026.90 1026.61 1026.31
1021.08 1021.04 1021.09 1021.20 1021.39 1021.63 1021.91 1022.18 1022.44 1022.66 1022.82 1022.92 1022.97 1022.98 1022.97 1022.96 1022.98 1023.03 1023.13 1023.27 1023.44 1023.62 1023.81 1023.99 1024.16 1024.33 1024.51 1024.72 1024.97 1025.27 1025.62 1026.01 1026.41 1026.80 1027.13 1027.38 1027.52 1027.55 1027.47 1027.30 1027.06 1026.77 1026.46
1021.51 1021.55 1021.65 1021.82 1022.05 1022.34 1022.66 1022.99 1023.30 1023.56 1023.76 1023.88 1023.94 1023.93 1023.88 1023.82 1023.78 1023.77 1023.81 1023.91 1024.05 1024.22 1024.42 1024.61 1024.81 1025.00 1025.19 1025.39 1025.60 1025.85 1026.12 1026.42 1026.72 1027.01 1027.26 1027.44 1027.55 1027.57 1027.49 1027.34 1027.12 1026.85 1026.55
1021.92 1022.01 1022.16 1022.36 1022.63 1022.95 1023.31 1023.67 1024.03 1024.33 1024.57 1024.72 1024.79 1024.78 1024.72 1024.63 1024.54 1024.48 1024.47 1024.52 1024.63 1024.79 1024.97 1025.17 1025.37 1025.57 1025.75 1025.92 1026.10 1026.28 1026.47 1026.67 1026.87 1027.07 1027.23 1027.35 1027.42 1027.42 1027.36 1027.23 1027.04 1026.81 1026.55
1022.32 1022.45 1022.62 1022.84 1023.12 1023.45 1023.82 1024.22 1024.60 1024.94 1025.21 1025.40 1025.49 1025.50 1025.44 1025.34 1025.23 1025.15 1025.10 1025.12 1025.19 1025.32 1025.48 1025.67 1025.86 1026.04 1026.20 1026.33 1026.46 1026.57 1026.68 1026.79 1026.90 1027.00 1027.09 1027.15 1027.18 1027.16 1027.11 1027.00 1026.85 1026.67 1026.44
1022.73 1022.87 1023.04 1023.25 1023.53 1023.85 1024.22 1024.62 1025.02 1025.38 1025.68 1025.91 1026.04 1026.07 1026.04 1025.95 1025.84 1025.75 1025.68 1025.68 1025.72 1025.83 1025.96 1026.13 1026.29 1026.44 1026.56 1026.66 1026.72 1026.77 1026.80 1026.83 1026.85 1026.87 1026.89 1026.90 1026.89 1026.86 1026.80 1026.71 1026.59 1026.44 1026.25
1023.13 1023.27 1023.43 1023.63 1023.88 1024.19 1024.54 1024.92 1025.32 1025.69 1026.02 1026.27 1026.43 1026.51 1026.50 1026.45 1026.36 1026.27 1026.21 1026.19 1026.22 1026.30 1026.41 1026.54 1026.67 1026.78 1026.87 1026.92 1026.94 1026.92 1026.89 1026.85 1026.80 1026.76 1026.71 1026.67 1026.63 1026.57 1026.50 1026.41 1026.30 1026.16 1026.00
1023.53 1023.67 1023.81 1023.99 1024.21 1024.48 1024.81 1025.17 1025.55 1025.92 1026.26 1026.53 1026.72 1026.83 1026.86 1026.84 1026.79 1026.72 1026.67 1026.65 1026.67 1026.72 1026.81 1026.91 1027.00 1027.08 1027.13 1027.14 1027.11 1027.06 1026.98 1026.89 1026.80 1026.70 1026.61 1026.53 1026.44 1026.36 1026.27 1026.16 1026.04 1025.90 1025.73
1023.92 1024.05 1024.18 1024.33 1024.53 1024.78 1025.07 1025.41 1025.77 1026.12 1026.45 1026.73 1026.93 1027.07 1027.14 1027.15 1027.12 1027.08 1027.04 1027.03 1027.04 1027.07 1027.13 1027.20 1027.26 1027.30 1027.32 1027.30 1027.26 1027.18 1027.08 1026.96 1026.84 1026.72 1026.60 1026.48 1026.36 1026.25 1026.12 1025.99 1025.84 1025.68 1025.49
1024.28 1024.41 1024.53 1024.68 1024.86 1025.08 1025.35 1025.66 1025.99 1026.32 1026.63 1026.90 1027.11 1027.25 1027.34 1027.37 1027.36 1027.34 1027.31 1027.29 1027.29 1027.31 1027.34 1027.38 1027.42 1027.43 1027.43 1027.40 1027.34 1027.26 1027.15 1027.04 1026.91 1026.78 1026.65 1026.51 1026.37 1026.22 1026.06 1025.89 1025.70 1025.50 1025.27
1024.61 1024.74 1024.86 1025.01 1025.18 1025.40 1025.65 1025.93 1026.23 1026.53 1026.81 1027.05 1027.24 1027.38 1027.47 1027.50 1027.50 1027.48 1027.46 1027.43 1027.42 1027.42 1027.43 1027.44 1027.45 1027.44 1027.43 1027.39 1027.34 1027.27 1027.18 1027.08 1026.97 1026.85 1026.72 1026.57 1026.42 1026.24 1026.05 1025.84 1025.61 1025.36 1025.10
1024.87 1025.00 1025.14 1025.30 1025.48 1025.68 1025.92 1026.18 1026.45 1026.71 1026.95 1027.16 1027.33 1027.45 1027.52 1027.55 1027.54 1027.52 1027.48 1027.44 1027.41 1027.39 1027.37 1027.36 1027.35 1027.34 1027.31 1027.29 1027.25 1027.20 1027.14 1027.07 1026.99 1026.89 1026.77 1026.63 1026.46 1026.27 1026.05 1025.81 1025.54 1025.25 1024.95
1025.04 1025.19 1025.34 1025.51 1025.70 1025.90 1026.13 1026.36 1026.60 1026.83 1027.04 1027.21 1027.34 1027.43 1027.48 1027.50 1027.48 1027.45 1027.40 1027.35 1027.30 1027.25 1027.21 1027.18 1027.16 1027.14 1027.12 1027.10 1027.09 1027.07 1027.04 1027.00 1026.95 1026.88 1026.78 1026.65 1026.48 1026.28 1026.04 1025.76 1025.47 1025.15 1024.83
1025.13 1025.28 1025.44 1025.62 1025.81 1026.01 1026.22 1026.44 1026.65 1026.84 1027.01 1027.16 1027.26 1027.33 1027.36 1027.36 1027.34 1027.29 1027.24 1027.18 1027.11 1027.05 1027.00 1026.95 1026.92 1026.90 1026.89 1026.88 1026.89 1026.90 1026.91 1026.90 1026.88 1026.83 1026.75 1026.63 1026.46 1026.25 1025.99 1025.71 1025.39 1025.05 1024.71
1025.11 1025.27 1025.43 1025.61 1025.79 1025.99 1026.18 1026.37 1026.56 1026.72 1026.87 1026.98 1027.07 1027.12 1027.15 1027.15 1027.13 1027.08 1027.03 1026.97 1026.90 1026.84 1026.78 1026.73 1026.69 1026.68 1026.67 1026.69 1026.72 1026.75 1026.79 1026.81 1026.81 1026.78 1026.71 1026.59 1026.41 1026.19 1025.93 1025.63 1025.29 1024.95 1024.59
1025.03 1025.17 1025.33 1025.49 1025.66 1025.83 1026.00 1026.17 1026.33 1026.47 1026.59 1026.70 1026.78 1026.83 1026.87 1026.88 1026.87 1026.85 1026.81 1026.76 1026.70 1026.64 1026.59 1026.54 1026.51 1026.50 1026.51 1026.55 1026.59 1026.65 1026.71 1026.75 1026.76 1026.74 1026.67 1026.55 1026.37 1026.13 1025.85 1025.54 1025.19 1024.83 1024.47
1024.90 1025.03 1025.16 1025.29 1025.43 1025.57 1025.71 1025.85 1025.98 1026.11 1026.22 1026.32 1026.40 1026.48 1026.53 1026.57 1026.59 1026.59 1026.58 1026.55 1026.51 1026.47 1026.43 1026.39 1026.38 1026.38 1026.41 1026.46 1026.53 1026.60 1026.68 1026.73 1026.76 1026.74 1026.66 1026.53 1026.33 1026.08 1025.78 1025.44 1025.09 1024.72 1024.35
1024.76 1024.86 1024.96 1025.06 1025.16 1025.26 1025.37 1025.47 1025.58 1025.68 1025.78 1025.89 1025.99 1026.08 1026.16 1026.23 1026.28 1026.32 1026.33 1026.33 1026.31 1026.29 1026.27 1026.25 1026.25 1026.28 1026.32 1026.40 1026.48 1026.58 1026.67 1026.73 1026.76 1026.74 1026.66 1026.52 1026.30 1026.03 1025.71 1025.35 1024.98 1024.59 1024.22
1024.64 1024.71 1024.78 1024.83 1024.89 1024.95 1025.01 1025.07 1025.15 1025.23 1025.33 1025.44 1025.54 1025.66 1025.76 1025.86 1025.94 1026.00 1026.04 1026.06 1026.06 1026.06 1026.05 1026.05 1026.07 1026.11 1026.18 1026.28 1026.39 1026.51 1026.61 1026.70 1026.74 1026.72 1026.64 1026.48 1026.26 1025.97 1025.63 1025.25 1024.85 1024.45 1024.06
1024.54 1024.59 1024.62 1024.64 1024.65 1024.67 1024.68 1024.71 1024.75 1024.81 1024.89 1024.99 1025.10 1025.22 1025.34 1025.45 1025.54 1025.62 1025.67 1025.69 1025.70 1025.70 1025.71 1025.72 1025.75 1025.81 1025.91 1026.03 1026.17 1026.31 1026.45 1026.55 1026.61 1026.61 1026.54 1026.38 1026.16 1025.86 1025.51 1025.12 1024.71 1024.30 1023.89
1024.44 1024.47 1024.48 1024.47 1024.45 1024.42 1024.40 1024.39 1024.40 1024.43 1024.48 1024.56 1024.66 1024.77 1024.88 1024.98 1025.07 1025.13 1025.17 1025.19 1025.19 1025.19 1025.19 1025.21 1025.25 1025.33 1025.44 1025.59 1025.76 1025.94 1026.11 1026.25 1026.34 1026.37 1026.32 1026.19 1025.97 1025.68 1025.34 1024.95 1024.54 1024.11 1023.70
1024.30 1024.33 1024.33 1024.30 1024.25 1024.19 1024.13 1024.09 1024.07 1024.07 1024.09 1024.14 1024.22 1024.30 1024.38 1024.45 1024.51 1024.54 1024.56 1024.55 1024.53 1024.51 1024.50 1024.51 1024.56 1024.65 1024.78 1024.96 1025.16 1025.38 1025.59 1025.77 1025.90 1025.97 1025.96 1025.86 1025.68 1025.41 1025.09 1024.72 1024.32 1023.90 1023.49
Thickness
5581 5581 5581 5581 5581 5582 5582 5582 5583 5584 5585 5586 5588 5589 5591 5592 5593 5594 5594 5595 5597 5598 5599 5600 5601 5601 5601 5600 5599 5597 5594 5592 5585 5575 5571 5568 5567 5565 5562 5561 5559 5557 5555
5570 5570 5570 5570 5570 5570 5570 5571 5571 5572 5573 5575 5576 5578 5579 5580 5581 5582 5583 5584 5585 5586 5587 5588 5588 5589 5588 5587 5586 5585 5582 5580 5577 5568 5561 5558 5556 5554 5552 5551 5549 5547 5545
5559 5559 5558 5558 5559 5559 5559 5559 5560 5560 5561 5562 5564 5565 5566 5567 5569 5570 5571 5572 5572 5573 5574 5575 5575 5576 5575 5574 5573 5572 5570 5567 5564 5559 5552 5547 5545 5543 5542 5541 5539 5537 5536
5550 5549 5548 5548 5547 5547 5547 5547 5548 5549 5549 5550 5551 5552 5554 5555 5557 5558 5559 5559 5560 5560 5561 5562 5563 5563 5563 5562 5561 5559 5557 5554 5551 5547 5542 5538 5535 5533 5532 5531 5529 5527 5526
5540 5539 5538 5537 5537 5537 5537 5536 5537 5537 5538 5538 5539 5541 5542 5544 5545 5546 5547 5547 5548 5548 5549 5549 5551 5551 5551 5551 5550 5547 5545 5542 5539 5536 5533 5530 5527 5525 5523 5520 5519 5518 5517
5530 5529 5528 5528 5527 5527 5527 5526 5526 5526 5526 5527 5527 5529 5530 5531 5533 5535 5536 5536 5536 5536 5537 5537 5538 5539 5539 5539 5538 5536 5535 5533 5529 5526 5523 5521 5518 5516 5514 5512 5511 5512 5511
5522 5521 5520 5519 5518 5518 5518 5518 5517 5516 5516 5516 5517 5518 5519 5520 5523 5524 5525 5525 5525 5525 5525 5526 5527 5527 5527 5527 5526 5525 5523 5522 5521 5519 5516 5513 5511 5509 5507 5506 5503 5503 5502
5513 5513 5512 5511 5511 5510 5510 5509 5508 5507 5507 5506 5507 5508 5509 5511 5512 5514 5514 5515 5514 5514 5515 5515 5515 5516 5516 5517 5516 5515 5513 5512 5512 5510 5509 5506 5504 5502 5500 5499 5496 5494 5493
5507 5506 5505 5505 5504 5503 5502 5501 5500 5499 5498 5498 5498 5499 5500 5501 5503 5504 5505 5505 5504 5504 5505 5505 5506 5506 5506 5507 5507 5506 5505 5503 5503 5502 5501 5500 5498 5496 5494 5492 5491 5492 5492
5501 5500 5499 5498 5497 5496 5495 5494 5494 5493 5492 5491 5491 5491 5492 5492 5494 5495 5497 5496 5495 5495 5495 5496 5497 5497 5498 5498 5499 5498 5497 5495 5495 5495 5494 5493 5492 5490 5488 5487 5487 5487 5487
5497 5495 5494 5493 5492 5491 5490 5489 5488 5488 5486 5486 5485 5484 5485 5485 5486 5487 5488 5488 5487 5488 5488 5488 5489 5490 5491 5491 5491 5491 5490 5489 5488 5488 5487 5487 5486 5485 5484 5483 5482 5482 5483
5492 5490 5489 5488 5488 5487 5486 5484 5483 5482 5481 5480 5479 5478 5478 5479 5480 5480 5481 5482 5482 5482 5482 5482 5483 5484 5485 5486 5485 5485 5484 5484 5483 5483 5482 5481 5481 5480 5480 5480 5480 5479 5480
5488 5486 5484 5483 5482 5482 5481 5480 5478 5477 5477 5475 5474 5474 5473 5473 5473 5475 5476 5476 5477 5477 5477 5478 5479 5480 5480 5480 5479 5479 5479 5479 5478 5478 5477 5476 5475 5475 5476 5477 5478 5478 5479
5485 5483 5481 5480 5479 5478 5477 5477 5476 5475 5474 5473 5472 5471 5470 5470 5470 5471 5471 5472 5473 5473 5473 5474 5474 5475 5474 5474 5474 5473 5473 5473 5473 5473 5472 5471 5472 5473 5473 5474 5475 5476 5477
5483 5481 5478 5477 5476 5474 5473 5472 5473 5472 5472 5471 5470 5469 5468 5468 5468 5468 5469 5469 5469 5469 5470 5471 5471 5470 5470 5469 5469 5468 5468 5468 5469 5468 5468 5469 5470 5470 5471 5471 5472 5473 5475
5482 5479 5477 5475 5474 5472 5472 5471 5470 5471 5471 5471 5470 5468 5467 5467 5467 5467 5468 5468 5468 5468 5468 5467 5466 5466 5466 5465 5465 5465 5465 5465 5464 5465 5465 5466 5467 5468 5469 5470 5470 5471 5473
5482 5479 5477 5475 5474 5472 5471 5471 5470 5469 5470 5469 5469 5468 5468 5467 5467 5467 5467 5467 5467 5467 5466 5465 5464 5463 5463 5463 5463 5463 5462 5461 5461 5462 5463 5464 5465 5466 5467 5468 5469 5471 5472
5484 5482 5479 5477 5475 5474 5473 5471 5470 5470 5470 5469 5469 5469 5469 5468 5468 5468 5467 5467 5466 5466 5465 5464 5464 5463 5462 5462 5461 5461 5461 5460 5461 5461 5462 5463 5464 5465 5466 5467 5468 5469 5471
5487 5484 5482 5480 5478 5477 5475 5474 5473 5472 5471 5471 5470 5471 5470 5470 5470 5469 5468 5468 5467 5467 5466 5465 5464 5463 5463 5462 5461 5460 5460 5461 5461 5461 5462 5463 5463 5465 5466 5467 5468 5468 5470
5491 5489 5487 5484 5483 5481 5480 5479 5477 5476 5475 5475 5474 5474 5473 5473 5472 5472 5471 5470 5469 5469 5468 5467 5466 5465 5464 5463 5463 5462 5462 5462 5462 5462 5463 5463 5464 5465 5466 5467 5469 5470 5471
5495 5493 5492 5490 5488 5487 5485 5484 5483 5481 5480 5480 5480 5479 5477 5477 5476 5475 5475 5474 5473 5472 5471 5470 5469 5468 5467 5466 5465 5465 5465 5464 5464 5464 5464 5464 5465 5466 5466 5467 5468 5470 5471
5500 5498 5496 5495 5494 5492 5491 5490 5489 5488 5487 5487 5486 5485 5484 5482 5482 5481 5480 5479 5478 5477 5476 5474 5474 5472 5471 5470 5469 5468 5468 5467 5467 5466 5466 5466 5466 5467 5468 5469 5470 5471 5472
5506 5504 5502 5501 5499 5498 5497 5496 5495 5494 5494 5494 5493 5492 5491 5490 5489 5488 5487 5486 5485 5483 5481 5480 5478 5477 5476 5475 5473 5472 5471 5471 5470 5469 5468 5468 5469 5469 5469 5470 5470 5472 5473
5511 5510 5508 5507 5506 5504 5504 5503 5502 5501 5501 5501 5500 5499 5498 5497 5496 5495 5494 5493 5491 5490 5488 5486 5485 5483 5482 5480 5478 5477 5476 5475 5474 5472 5471 5470 5471 5471 5471 5471 5472 5472 5473
5517 5515 5514 5513 5512 5511 5510 5510 5509 5509 5509 5508 5508 5507 5506 5505 5504 5503 5501 5500 5498 5497 5495 5493 5491 5490 5488 5486 5484 5483 5481 5480 5478 5476 5474 5473 5472 5472 5472 5472 5473 5473 5473
5523 5522 5521 5519 5518 5518 5517 5517 5517 5516 5516 5516 5515 5514 5513 5512 5511 5510 5508 5506 5505 5503 5501 5500 5498 5496 5494 5492 5490 5488 5486 5484 5482 5480 5477 5475 5474 5474 5474 5473 5474 5473 5473